Weather in Whangarei

New Zealand     35°43′28″S   174°18′45″E
temp.,
°C
wind,
m/s
gust,
m/s
humid.,
%
clouds,
%
prec.,
mm/h
press.,
hPa
HPBL,
m
17 june, thu
thu1700:00+9nw119922 0.0 101629
03:00+9nw119825 0.0 101520
06:00+9nw11987 0.0 101529
09:00+11nw14940 0.0 1016115
12:00+16w366533 0.0 10151308
15:00+15wsw27731 0.4 10141090
18:00+10wnw11981 0.4 101511
21:00+9nw119910 0.0 101615
18 june, fri
fri1800:00+8nw119910 0.0 101613
03:00+7nw119911 0.0 101614
06:00+7nnw11998 0.0 101611
09:00+10n119365 0.0 101754
12:00+16nnw1363100 0.0 1016760
15:00+16n2367100 0.0 10151065
18:00+11ene1396100 0.0 101585
21:00+11ne169988 0.1 1015151
19 june, sat
sat1900:00+12n13100100 5.9 1014111
03:00+13ne2999100 16.7 1012389
06:00+11ne119941 17.6 101113
09:00+12n019925 0.0 101252
12:00+18nnw2575100 0.0 1011679
15:00+15n2788100 0.3 1009488
18:00+13ne2899100 2.5 1009318
21:00+13ene21099100 2.1 1008635
20 june, sun
sun2000:00+14n299898 6.6 1005524
03:00+12n159937 2.6 1004159
06:00+11nw1499100 2.6 1004107
09:00+12wnw169992 0.0 1004208
12:00+16wnw257631 0.0 1002979
15:00+17wnw276910 0.1 10011258
18:00+11nw119695 0.0 100213
21:00+11nnw1399100 0.0 100383
21 june, mon
mon2100:00+10nnw149982 0.0 100294
03:00+10nw139974 0.0 100190
06:00+10wnw119988 0.0 100125
09:00+12ssw3892100 0.1 1003913
12:00+14sw498645 0.6 10031065
15:00+13sw39896 1.0 1004907
18:00+11wsw211946 1.2 1005682
21:00+12wsw3119214 0.1 1006795